Home > Weather > Philadelphia > Past weeks

Flag for USA Past Weather in Philadelphia, Pennsylvania, USA — Yesterday and Last 2 Weeks

Now
70 °F

Passing clouds.


Feels Like: 75 °F
Forecast: 67 / 87 °F
Wind: 7 mph from South

Location: Philadelphia International Airport

Current Time: May 28, 2016 at 4:09:13 AM

Latest Report: May 28, 2016 at 2:54 AM


Visibility: 10 mi

Pressure: 30.10 "Hg

Humidity: 66%

Dew Point: 58 °F

Location of PhiladelphiaLocation

Past Weather in Philadelphia — Graph

°F

Philadelphia Temperature Yesterday

Maximum temperature yesterday: 89 °F (at 2:54 PM)
Minimum temperature yesterday: 70 °F (at 4:54 AM)
Average temperature yesterday: 79 °F

High & Low Weather Summary for the Past Weeks

 TemperatureHumidityPressure
High89 °F (May 26, 2:54 PM)93% (May 13, 10:54 PM)30.27 "Hg (May 13, 10:54 PM)
Low43 °F (May 16, 2:54 AM)17% (May 25, 3:54 PM)29.65 "Hg (May 14, 3:54 PM)
Average64 °F60%30.01 "Hg
* Reported May 13 1:54 AM — May 28 1:54 AM, Philadelphia, Weather by CustomWeather, © 2016

Note: Actual official high and low records may vary slightly from our data, if they occured in-between our weather recording intervals... More about our weather records

Advertising

Philadelphia Weather History for the Previous 24 Hours

Scroll right to see more
 ConditionsComfort  
Time TempWeatherWind HumidityBarometerVisibility
1:54 AM
Sat, May 28
72 °FPassing clouds.8 mph61%30.10 "Hg10 mi
12:54 AM73 °FPassing clouds.8 mph64%30.10 "Hg10 mi
11:54 PM
Fri, May 27
74 °FPassing clouds.8 mph67%30.10 "Hg10 mi
10:54 PM75 °FPassing clouds.7 mph69%30.08 "Hg10 mi
9:54 PM78 °FPassing clouds.8 mph64%30.09 "Hg10 mi
8:54 PM80 °FPartly sunny.9 mph60%30.05 "Hg10 mi
7:54 PM83 °FPartly sunny.10 mph57%30.03 "Hg10 mi
6:54 PM87 °FPartly sunny.9 mph46%30.02 "Hg10 mi
5:54 PM89 °FPartly sunny.15 mph43%30.01 "Hg10 mi
4:54 PM89 °FScattered clouds.13 mph42%30.03 "Hg10 mi
3:54 PM89 °FScattered clouds.13 mph43%30.03 "Hg10 mi
2:54 PM89 °FScattered clouds.16 mph43%30.03 "Hg10 mi
1:54 PM88 °FScattered clouds.12 mph46%30.05 "Hg10 mi
12:54 PM86 °FScattered clouds.9 mph51%30.06 "Hg10 mi
11:54 AM83 °FScattered clouds.8 mph57%30.06 "Hg10 mi
10:54 AM82 °FScattered clouds.12 mph56%30.06 "Hg10 mi
9:54 AM79 °FScattered clouds.8 mph62%30.06 "Hg10 mi
8:54 AM77 °FScattered clouds.9 mph66%30.07 "Hg10 mi
7:54 AM73 °FScattered clouds.9 mph74%30.08 "Hg10 mi
6:54 AM71 °FScattered clouds.5 mph76%30.07 "Hg10 mi
5:54 AM70 °FPassing clouds.5 mph76%30.06 "Hg10 mi
4:54 AM70 °FPassing clouds.3 mph76%30.07 "Hg10 mi
Weather by CustomWeather, © 2016

See weather overviewHow to use our weather pages